Date String (YYYY-MM-DD hh:mm:ss) UTC,Instrument flags,Ambient pressure (hPa),Sample flow (lpm),Bypass flow (lpm),Sample temperature (°C),Ambient temperature (°C),ASC tube jacket temperature (°C),LED temperature (°C),Box temperature (°C),Sample RH (%),Span deviation,Mass concentration (μg/m³),Mass concentration (μg/m³),Mass concentration (μg/m³)
DateTimeUTC,F1_M11,P_M11,Q1_M11,Q2_M11,T1_M11,T2_M11,T3_M11,T4_M11,T5_M11,U1_M11,ZSPAN_M11,X0_M11,X2_M11,X1_M11
2022-01-18 07:00:00,,0820.2,4.98,0.00,25.1,24.2,00.0,34.1,26.8,08.8,0000.0,0013.30,0006.77,0005.87
2022-01-18 07:01:00,,0820.2,5.01,0.00,25.1,24.2,00.0,34.1,26.8,08.8,0000.0,0013.22,0006.75,0005.84
2022-01-18 07:02:00,,0820.1,5.00,0.00,25.0,24.2,00.0,34.1,26.8,08.8,0000.0,0013.31,0006.72,0005.83
2022-01-18 07:03:00,,0820.2,5.01,0.00,25.0,24.2,00.0,34.1,26.8,08.8,0000.0,0013.95,0006.74,0005.83
2022-01-18 07:04:00,,0820.1,4.97,0.00,25.0,24.2,00.0,34.0,26.8,08.8,0000.0,0014.33,0006.75,0005.82
2022-01-18 07:05:00,,0820.1,4.99,0.00,25.0,24.2,00.0,34.0,26.8,08.8,0000.0,0014.31,0006.66,0005.80
2022-01-18 07:06:00,,0820.0,5.01,0.00,25.0,24.2,00.0,34.0,26.7,08.9,0000.0,0014.57,0006.63,0005.80
2022-01-18 07:07:00,,0820.0,4.98,0.00,25.0,24.2,00.0,34.0,26.7,08.9,0000.0,0013.98,0006.64,0005.82
2022-01-18 07:08:00,,0820.0,5.01,0.00,25.0,24.2,00.0,34.0,26.7,08.8,0000.0,0014.20,0006.68,0005.84
2022-01-18 07:09:00,,0820.0,4.99,0.00,25.0,24.2,00.0,34.0,26.7,08.9,0000.0,0014.86,0006.67,0005.84
2022-01-18 07:10:00,,0820.0,5.01,0.00,25.0,24.1,00.0,34.0,26.7,08.9,0000.0,0015.56,0006.64,0005.84
2022-01-18 07:11:00,,0820.0,4.98,0.00,24.9,24.2,00.0,34.0,26.7,08.9,0000.0,0016.12,0006.61,0005.84
2022-01-18 07:12:00,,0819.9,5.00,0.00,24.9,24.1,00.0,34.0,26.7,08.9,0000.0,0015.93,0006.58,0005.84
2022-01-18 07:13:00,,0819.9,5.01,0.00,24.9,24.1,00.0,34.0,26.7,08.9,0000.0,0016.28,0006.61,0005.82
2022-01-18 07:14:00,,0819.9,4.98,0.00,24.9,24.1,00.0,34.0,26.7,09.0,0000.0,0015.68,0006.62,0005.83
2022-01-18 07:15:00,,0819.9,5.02,0.00,24.9,24.1,00.0,34.0,26.7,09.0,0000.0,0014.94,0006.62,0005.84
2022-01-18 07:16:00,,0819.9,4.99,0.00,24.9,24.1,00.0,34.0,26.7,09.0,0000.0,0015.18,0006.62,0005.85
2022-01-18 07:17:00,,0819.8,4.99,0.00,24.9,24.1,00.0,33.9,26.7,09.4,0000.0,0015.66,0006.58,0005.85
2022-01-18 07:18:00,,0819.9,5.00,0.00,24.9,24.1,00.0,33.9,26.7,09.1,0000.0,0015.42,0006.55,0005.84
2022-01-18 07:19:00,,0819.9,5.00,0.00,24.9,24.1,00.0,33.9,26.7,09.5,0000.0,0015.77,0006.48,0005.81
2022-01-18 07:20:00,,0819.9,4.99,0.00,24.9,24.1,00.0,33.9,26.7,09.1,0000.0,0015.96,0006.40,0005.77
2022-01-18 07:21:00,,0819.9,5.00,0.00,24.9,24.1,00.0,33.9,26.6,09.0,0000.0,0015.68,0006.38,0005.76
2022-01-18 07:22:00,,0820.0,5.01,0.00,24.9,24.1,00.0,33.9,26.6,08.9,0000.0,0015.26,0006.39,0005.76
2022-01-18 07:23:00,,0819.9,4.98,0.00,24.8,24.0,00.0,33.9,26.6,09.0,0000.0,0015.16,0006.37,0005.72
2022-01-18 07:24:00,,0819.9,5.02,0.00,24.8,24.0,00.0,33.9,26.6,08.8,0000.0,0015.24,0006.30,0005.67
2022-01-18 07:25:00,,0819.9,4.98,0.00,24.8,24.0,00.0,33.9,26.5,08.7,0000.0,0015.38,0006.18,0005.58
2022-01-18 07:26:00,,0819.9,5.02,0.00,24.8,23.9,00.0,33.8,26.5,08.9,0000.0,0015.38,0006.10,0005.52
2022-01-18 07:27:00,,0819.8,4.98,0.00,24.8,24.0,00.0,33.8,26.6,08.8,0000.0,0015.55,0006.07,0005.47
2022-01-18 07:28:00,,0819.8,5.01,0.00,24.8,24.0,00.0,33.8,26.5,08.8,0000.0,0014.97,0006.05,0005.43
2022-01-18 07:29:00,,0819.8,5.00,0.00,24.7,24.0,00.0,33.8,26.5,08.6,0000.0,0015.05,0005.98,0005.37
2022-01-18 07:30:00,,0819.8,5.00,0.00,24.8,24.0,00.0,33.8,26.5,08.5,0000.0,0015.34,0005.91,0005.28
2022-01-18 07:31:00,,0819.8,5.01,0.00,24.7,24.0,00.0,33.8,26.5,08.4,0000.0,0015.03,0005.85,0005.19
2022-01-18 07:32:00,,0819.8,4.99,0.00,24.7,24.0,00.0,33.8,26.6,08.4,0000.0,0014.35,0005.76,0005.08
2022-01-18 07:33:00,,0819.7,5.01,0.00,24.7,24.0,00.0,33.8,26.6,08.2,0000.0,0013.86,0005.63,0004.97
2022-01-18 07:34:00,,0819.7,5.00,0.00,24.7,24.0,00.0,33.8,26.6,08.5,0000.0,0013.54,0005.54,0004.90
2022-01-18 07:35:00,,0819.7,5.00,0.00,24.7,24.0,00.0,33.8,26.5,08.3,0000.0,0013.77,0005.49,0004.86
2022-01-18 07:36:00,,0819.7,5.02,0.00,24.7,24.0,00.0,33.8,26.5,07.8,0000.0,0013.67,0005.39,0004.78
2022-01-18 07:37:00,,0819.7,4.99,0.00,24.7,24.0,00.0,33.8,26.5,07.6,0000.0,0013.34,0005.23,0004.66
2022-01-18 07:38:00,,0819.7,5.00,0.00,24.7,24.0,00.0,33.8,26.5,07.7,0000.0,0012.55,0005.06,0004.51
2022-01-18 07:39:00,,0819.7,5.00,0.00,24.7,24.0,00.0,33.7,26.5,07.9,0000.0,0011.83,0004.94,0004.38
2022-01-18 07:40:00,,0819.7,4.99,0.00,24.7,24.0,00.0,33.7,26.5,07.8,0000.0,0011.70,0004.86,0004.30
2022-01-18 07:41:00,,0819.7,5.01,0.00,24.7,23.9,00.0,33.7,26.5,07.8,0000.0,0011.34,0004.78,0004.23
2022-01-18 07:42:00,,0819.7,4.99,0.00,24.7,23.9,00.0,33.7,26.4,08.1,0000.0,0010.64,0004.73,0004.21
2022-01-18 07:43:00,,0819.8,5.00,0.00,24.7,23.9,00.0,33.7,26.5,08.0,0000.0,0010.34,0004.66,0004.17
2022-01-18 07:44:00,,0819.8,5.00,0.00,24.7,23.9,00.0,33.7,26.5,08.8,0000.0,0010.89,0004.65,0004.18
2022-01-18 07:45:00,,0819.7,5.01,0.00,24.7,23.9,00.0,33.7,26.5,09.4,0000.0,0011.61,0004.74,0004.26
2022-01-18 07:46:00,,0819.8,4.99,0.00,24.6,23.9,00.0,33.7,26.4,09.1,0000.0,0011.99,0004.79,0004.31
2022-01-18 07:47:00,,0819.8,5.00,0.00,24.6,23.8,00.0,33.7,26.4,08.7,0000.0,0013.07,0004.84,0004.35
2022-01-18 07:48:00,,0819.7,5.00,0.00,24.6,23.8,00.0,33.7,26.3,08.6,0000.0,0013.09,0004.94,0004.41
2022-01-18 07:49:00,,0819.7,4.99,0.00,24.6,23.8,00.0,33.7,26.3,08.4,0000.0,0013.12,0004.98,0004.46
2022-01-18 07:50:00,,0819.7,5.00,0.00,24.6,23.8,00.0,33.6,26.3,08.6,0000.0,0013.63,0005.04,0004.53
2022-01-18 07:51:00,,0819.6,5.01,0.00,24.6,23.8,00.0,33.6,26.4,08.9,0000.0,0015.21,0005.15,0004.61
2022-01-18 07:52:00,,0819.5,4.99,0.00,24.6,23.8,00.0,33.6,26.4,09.1,0000.0,0015.72,0005.38,0004.79
2022-01-18 07:53:00,,0819.6,4.99,0.00,24.6,23.8,00.0,33.6,26.4,09.1,0000.0,0016.61,0005.58,0004.95
2022-01-18 07:54:00,,0819.5,5.01,0.00,24.6,23.8,00.0,33.6,26.4,09.1,0000.0,0017.53,0005.78,0005.10
2022-01-18 07:55:00,,0819.6,4.99,0.00,24.6,23.8,00.0,33.6,26.4,09.1,0000.0,0018.03,0005.91,0005.21
2022-01-18 07:56:00,,0819.6,5.00,0.00,24.6,23.9,00.0,33.6,26.4,09.0,0000.0,0017.53,0005.91,0005.23
2022-01-18 07:57:00,,0819.6,5.01,0.00,24.6,23.9,00.0,33.6,26.4,08.9,0000.0,0016.83,0005.97,0005.27
2022-01-18 07:58:00,,0819.5,4.99,0.00,24.6,23.9,00.0,33.6,26.5,08.8,0000.0,0015.46,0006.08,0005.37
2022-01-18 07:59:00,,0819.5,5.00,0.00,24.6,23.9,00.0,33.6,26.4,08.8,0000.0,0015.83,0006.20,0005.47
